Flag for U.S.A. Weather past 2 weeks in Pierre, South Dakota, U.S.A.

Now
86 °F

Sunny.


Feels Like: 84 °F
Forecast: 66 / 93 °F
Wind: 18 mph from Southeast

Location: Pierre Regional Airport

Current Time: Jul 23, 2014 at 7:37:01 PM

Latest Report: Jul 23, 2014 at 6:53 PM


Visibility: 10 mi

Pressure: 30.06 "Hg

Humidity: 31%

Dew point: 52 °F

Location of PierreLocation

Historic Weather in Pierre — Graph

°F

Pierre temperature yesterday

Maximum temperature yesterday: 85 °F (at 6:53 PM)
Minimum temperature yesterday: 64 °F (at 5:53 AM)
Average temperature yesterday: 71 °F

Past Weeks' High & Low Weather Summary

 TemperatureHumidityPressure
High103 °F (Jul 21, 3:53 PM)100% (Jul 11, 4:53 AM)30.26 "Hg (Jul 11, 4:53 AM)
Low48 °F (Jul 15, 5:53 AM)23% (Jul 9, 3:53 PM)29.62 "Hg (Jul 20, 7:53 PM)
Average72 °F66%29.93 "Hg
* Reported Jul 8 5:53 PM — Jul 23 5:53 PM, Pierre, Weather by CustomWeather, © 2014

Note: Actual official high and low records may vary slightly from our data, if they occured in-between our weather recording intervals... More about our weather records

Advertising

Pierre weather history for previous 24 hours

 ConditionsComfort  
Time TempWeatherWind HumidityBarometerVisibility
5:53 PM
Jul 23
85 °FSunny.17 mph35%30.09 "Hg10 mi
4:53 PM87 °FSunny.18 mph33%30.08 "Hg10 mi
3:53 PM86 °FScattered clouds.17 mph35%30.12 "Hg10 mi
2:53 PM86 °FSunny.20 mph33%30.14 "Hg10 mi
1:53 PM84 °FSunny.18 mph36%30.16 "Hg10 mi
12:53 PM82 °FSunny.18 mph41%30.19 "Hg10 mi
11:53 AM79 °FSunny.22 mph48%30.20 "Hg10 mi
10:53 AM78 °FSunny.24 mph48%30.21 "Hg10 mi
9:53 AM75 °FSunny.18 mph58%30.20 "Hg10 mi
8:53 AM72 °FSunny.16 mph66%30.21 "Hg10 mi
7:53 AM68 °FSunny.15 mph73%30.19 "Hg10 mi
6:53 AM64 °FClear.10 mph84%30.20 "Hg10 mi
5:53 AM65 °FClear.13 mph85%30.19 "Hg10 mi
4:53 AM67 °FClear.10 mph79%30.18 "Hg10 mi
3:53 AM65 °FClear.6 mph85%30.19 "Hg10 mi
2:53 AM66 °FClear.8 mph78%30.17 "Hg10 mi
12:53 AM69 °FClear.7 mph70%30.16 "Hg10 mi
11:53 PM
Jul 22
73 °FClear.18 mph64%30.12 "Hg10 mi
10:53 PM73 °FPassing clouds.12 mph64%30.24 "Hg10 mi
9:53 PM74 °FSunny.3 mph64%30.20 "Hg10 mi
8:53 PM77 °FSunny.7 mph58%30.16 "Hg10 mi
7:53 PM81 °FSunny.12 mph47%30.13 "Hg10 mi
Weather by CustomWeather, © 2014

See weather overviewHow to use our weather pages